Regional Weather Roundup
Issued by NWS

Home | Current Version | Previous Version | Text Only | Print | Product List | Glossary Off
Versions: 1 2 3 4 5 6 7 8 9 10 11 12 13 14 15 16 17 18 19 20 21 22 23 24 25 26 27 28 29 30 31 32 33 34 35 36 37 38 39 40 41 42 43 44 45 46 47 48 49 50

000
ASUS43 KMPX 250101
RWRMN
WEATHER ROUNDUP FOR MINNESOTA
NATIONAL WEATHER SERVICE TWIN CITIES/CHANHASSEN MN
800 PM CDT FRI APR 24 2015


NOTE: "FAIR" INDICATES FEW OR NO CLOUDS BELOW 12,000 FEET WITH NO
SIGNIFICANT WEATHER AND/OR OBSTRUCTIONS TO VISIBILITY. N/A MEANS
CURRENT SKY AND/OR WEATHER CONDITIONS ARE NOT AVAILABLE.

MNZ060>063-068>070-250200-
   Twin Cities Metro

CITY           SKY/WX    TMP DP  RH WIND       PRES   REMARKS
TWIN CITIES    RAIN      45  41  87 E18       29.81S FOG
ST PAUL        LGT RAIN  44  41  89 SE12      29.84R
CRYSTAL        LGT RAIN  45  41  86 E10G20    29.80S
BLAINE         CLOUDY    48  39  71 SE12G20   29.81S
LAKEVILLE      CLOUDY    41  39  93 E13       29.80S
EDEN PRAIRIE   LGT RAIN  43  41  93 E15       29.79R FOG
SOUTH ST PAUL  LGT RAIN  44  41  90 SE8       29.82S
LAKE ELMO      CLOUDY    45  41  87 E8G16     29.84S
$$
MNZ001>005-007-008-013>017-022>024-027-028-250200-
   Northwest Minnesota

CITY           SKY/WX    TMP DP  RH WIND       PRES   REMARKS
BEMIDJI        CLOUDY    42  31  66 SE12      29.83R
HALLOCK        CLOUDY    48  30  49 E14       29.81R
ROSEAU         CLOUDY    43  34  70 E10       29.85S
WARROAD        CLOUDY    37  34  87 E9        29.88R
THIEF RVR FALL CLOUDY    46  32  57 E16       29.80S
CROOKSTON      CLOUDY    48  37  66 SE14      29.79R
FOSSTON        CLOUDY    45  32  61 E8        29.80R
DETROIT LAKES  CLOUDY    45  36  70 SE18G24   29.77S
MOORHEAD       CLOUDY    46  39  76 SE12G22   29.76R
PARK RAPIDS    CLOUDY    44  33  65 E13       29.80R
MAHNOMEN       CLOUDY    45  35  67 SE10      29.77R
$$
MNZ006-009>011-018-025>026-250200-
   North Central Minnesota

CITY           SKY/WX    TMP DP  RH WIND       PRES   REMARKS
BAUDETTE       CLOUDY    41  31  67 SE9       29.87S
FLAG ISLAND    CLOUDY    39  30  70 SE8       29.89S
INTL FALLS     CLOUDY    41  22  46 E10       29.90S
WASKISH        CLOUDY    43  32  65 E7        29.86R
BIG FORK       CLOUDY    43  28  56 SE7       29.89R
LONGVILLE      CLOUDY    41  30  65 E7        29.84R
GRAND RAPIDS   CLOUDY    39  28  65 SE7       29.87S
CRANE LAKE     CLOUDY    39  18  41 CALM      29.95S
ORR            CLOUDY    39  18  41 SE5       29.89S
COOK           CLOUDY    39  21  48 E6        29.92S
WALKER         CLOUDY    41  33  72 E7        29.83S
$$
MNZ012-019>021-037-250200-
   Northeast Minnesota

CITY           SKY/WX    TMP DP  RH WIND       PRES   REMARKS
DULUTH         CLOUDY    37  25  61 E15       29.91R
ELY            CLOUDY    37  12  35 SE10      29.94S
HIBBING        CLOUDY    40  25  55 E12       29.90S
EVELETH        CLOUDY    37  23  56 E7        29.93R
DULUTH HARBOR  CLOUDY    37  32  81 NE23      29.94R
TWO HARBORS    CLOUDY    37  25  60 NE12G20   29.94S
SILVER BAY     CLOUDY    36  25  64 NE8       29.96S
GRAND MARAIS     N/A     35  27  72 NE10      30.02R WCI  27
G MARAIS ARPRT CLOUDY    34  12  40 E6        29.98R WCI  29
$$
MNZ029>031-032-039>041-046>048-054>057-064-250200-
   West Central Minnesota

CITY           SKY/WX    TMP DP  RH WIND       PRES   REMARKS
FERGUS FALLS   CLOUDY    45  37  76 E14G20    29.75S
WHEATON        CLOUDY    45  41  87 E17       29.71R
MORRIS         CLOUDY    46  43  87 E20       29.70S
ALEXANDRIA     LGT RAIN  43  41  93 E15G21    29.76S FOG
ELBOW LAKE     CLOUDY    44  42  93 E17G23    29.72S
WADENA         CLOUDY    43  36  75 E9        29.78S
GLENWOOD       CLOUDY    43  41  93 E17       29.75S
APPLETON       CLOUDY    48  43  81 E15G23    29.69S
BENSON         CLOUDY    46  41  81 SE9G18    29.72S
ORTONVILLE     MOCLDY    48  41  76 SE16G23   29.68R
MADISON        MOCLDY    48  43  81 SE20G25   29.68R
WILLMAR        CLOUDY    46  43  87 E15       29.74S
$$
MNZ033>034-036-042>043-049>051-058-059-250200-
   Central Minnesota

CITY           SKY/WX    TMP DP  RH WIND       PRES   REMARKS
ST CLOUD       CLOUDY    46  39  76 SE10      29.79R
SAUK CENTRE    LGT RAIN  43  40  87 E12G20    29.77S
PAYNESVILLE    CLOUDY    41  40  95 E15       29.77R FOG
AITKIN         CLOUDY    41  32  70 E8G16     29.84R
PINE RIVER     CLOUDY    41  34  75 E10       29.87R
BRAINERD       CLOUDY    42  32  67 E8        29.82S
STAPLES        CLOUDY    45  30  57 E7        29.79S
LONG PRAIRIE   CLOUDY    43  37  81 E9        29.78S
LITTLE FALLS   CLOUDY    45  36  70 E10       29.79S
LITCHFIELD     CLOUDY    45  43  93 SE15      29.76S
BUFFALO        CLOUDY    44  39  84 E12       29.80S
MAPLE LAKE     CLOUDY    45  42  89 E12G17    29.80R
$$
MNZ037-044-045-052-053-250200-
   East Central Minnesota

CITY           SKY/WX    TMP DP  RH WIND       PRES   REMARKS
PRINCETON      CLOUDY    46  37  71 E8        29.82R
MORA           CLOUDY    45  30  57 E6        29.85R
CAMBRIDGE      CLOUDY    48  36  61 SE9       29.81R
RUSH CITY      CLOUDY    49  35  58 SE13G21   29.84R
MOOSE LAKE     CLOUDY    37  32  81 CALM      29.86S
HINCKLEY       CLOUDY    43  32  65 NE7       29.85R
CLOQUET        CLOUDY    37  27  65 E9        29.89R
MCGREGOR       CLOUDY    37  32  81 E13       29.87R
$$
MNZ071>073-080-081-089-090-097-098-250200-
   Southwest Minnesota

CITY           SKY/WX    TMP DP  RH WIND       PRES   REMARKS
MONTEVIDEO     CLOUDY    46  43  87 SE15      29.70S
GRANITE FALLS  CLOUDY    47  42  81 E10G18    29.71S
CANBY          CLOUDY    49  43  80 E18       29.66S
MARSHALL       CLOUDY    50  39  66 E17       29.65S
REDWOOD FALLS  CLOUDY    46  42  86 E14G23    29.70F
OLIVIA         CLOUDY    45  39  81 SE17G23   29.71S
PIPESTONE      MOCLDY    52  46  82 SE17G28   29.59S
WINDOM         CLOUDY    48  43  81 E17G23    29.68S
WORTHINGTON    CLOUDY    50  43  76 E20       29.64S
JACKSON        CLOUDY    48  43  81 E17       29.67F
TRACY          CLOUDY    51  45  81 SE16G23   29.66R
SLAYTON        CLOUDY    49  46  89 E21       29.63F
$$
MNZ065>067-074>077-082>085-091>093-250200-
   South Central Minnesota

CITY           SKY/WX    TMP DP  RH WIND       PRES   REMARKS
MANKATO        CLOUDY    45  37  76 SE21      29.73F
NEW ULM        LGT RAIN  45  43  93 SE10      29.72R
ST JAMES       CLOUDY    48  43  81 SE17      29.70F
FAIRMONT       CLOUDY    46  18  31 SE16      29.69S
GLENCOE        CLOUDY    46  42  88 E16       29.76S
FARIBAULT      CLOUDY    43  39  87 E12       29.78F
OWATONNA       CLOUDY    43  39  87 E16       29.77F
ALBERT LEA     MOCLDY    45  43  93 SE13G21   29.74F
$$
MNZ078>079-086>088-094>096-250200-
   Southeast Minnesota

CITY           SKY/WX    TMP DP  RH WIND       PRES   REMARKS
ROCHESTER      LGT RAIN  42  39  89 SE20      29.79F
RED WING       RAIN      45  41  87 E9G16     29.82F
STANTON        LGT RAIN  44  40  85 SE9       29.79S
DODGE CENTER   RAIN      43  41  93 SE17      29.78S
AUSTIN         CLOUDY    43  39  87 SE15G22   29.76S
PRESTON        CLOUDY    42  38  87 SE10      29.82R
$$
ABBREVIATIONS USED IN REMARKS
   TC - TEMPERATURES IN CELSIUS
  WCI - WIND CHILL INDEX
   HX - HEAT INDEX
  VSB - VISIBILITY
$$


USA.gov is the U.S. government's official web portal to all federal, state and local government web resources and services.